Regional Weather Roundup
Issued by NWS

Home | Current Version | Previous Version | Text Only | Print | Product List | Glossary On
Versions: 1 2 3 4 5 6 7 8 9 10 11 12 13 14 15 16 17 18 19 20 21 22 23 24 25 26 27 28 29 30 31 32 33 34 35 36 37 38 39 40 41 42 43 44 45 46 47 48 49 50
138
ASUS45 KTFX 110010
RWRMT
MONTANA REGIONAL WEATHER ROUNDUP
NATIONAL WEATHER SERVICE GREAT FALLS MT
500 PM MST WED FEB 10 2016

NOTE: "FAIR" INDICATES FEW OR NO CLOUDS BELOW 12000 FEET WITH NO
SIGNIFICANT WEATHER AND/OR OBSTRUCTIONS TO VISIBILITY.

MTZ001>007-043-110100-
WEST OF THE DIVIDE

CITY           SKY/WX    TMP DP  RH WIND       PRES   REMARKS
KALISPELL      MOCLDY    39  30  70 CALM      30.19R
MISSOULA       CLOUDY    36  30  79 W5        30.22R
BUTTE          CLOUDY    36  25  64 CALM      30.22S
MULLAN PASS    CLOUDY    39  26  59 VRB3      30.24R
ANACONDA         N/A     43  27  52 CALM      30.20S
DEER LODGE       N/A     37  34  87 CALM      30.21F
HAMILTON         N/A     46  32  57 CALM      30.20R
LIBBY            N/A     39  30  70 SW3       30.22S
PLAINS           N/A     44  34  68 CALM      30.21R
$$

MTZ008-052>055-110100-
SOUTHWEST MONTANA

CITY           SKY/WX    TMP DP  RH WIND       PRES   REMARKS
BOZEMAN        CLOUDY    35  29  78 CALM      30.21R
DILLON         CLOUDY    43  27  53 S10       30.22R
ENNIS          CLEAR     46  25  42 S18       30.29R
THREE FORKS      N/A     40  24  53 CALM      30.17S
TWIN BRIDGES     N/A     39  27  62 N5        30.19S
$$

MTZ009-010-012-014-046-048-049-054-110100-
EAST SLOPES AND CENTRAL MONTANA

CITY           SKY/WX    TMP DP  RH WIND       PRES   REMARKS
CUT BANK       CLOUDY    51  26  37 W16       30.02S
GREAT FALLS    CLOUDY    52  26  36 SW16      30.05F
MALMSTROM AFB  CLOUDY    54  26  33 SW16      30.05F
HELENA         CLOUDY    45  30  55 CALM      30.16F
CHOTEAU          N/A     57  21  24 W14G22    30.07S
CONRAD           N/A     53  27  37 SW13      30.06S
$$

MTZ011-013-016-021-045-047-050-051-110100-
NORTH CENTRAL MONTANA

CITY           SKY/WX    TMP DP  RH WIND       PRES   REMARKS
HAVRE          CLOUDY    44  32  62 E8        30.06S
LEWISTOWN      CLOUDY    51  27  39 CALM      30.07S
N BAR RANCH      N/A     48  25  40 W5        30.10R
CHINOOK          N/A     39  32  75 E9        30.09R
$$

MTZ017>020-022>027-061-062-110100-
NORTHEAST MONTANA

CITY           SKY/WX    TMP DP  RH WIND       PRES   REMARKS
GLASGOW        CLOUDY    33  26  75 NE6       30.13S WCI  28
JORDAN           N/A     37  32  82 NE9       30.11S WCI  30
SIDNEY         CLOUDY    36  25  64 N12G20    30.13R WCI  27
WOLF POINT     CLOUDY    36  26  67 N8        30.16R WCI  30
PLENTYWOOD       N/A     28  25  86 N9        30.13R WCI  20
POPLAR           N/A     34  25  69 N13       30.15R WCI  25
SCOBEY           N/A     30  19  63 N13       30.09S WCI  20
$$

MTZ028>42-056>058-110100-
SOUTHCENTRAL AND SOUTHEAST MONTANA

CITY           SKY/WX    TMP DP  RH WIND       PRES   REMARKS
BAKER          CLEAR     35  28  75 N10       30.09R WCI  27
BILLINGS       PTCLDY    59  22  24 NW10      30.08S
LIVINGSTON     CLOUDY    54  17  23 W12       30.15R
MILES CITY     CLEAR     42  32  67 NW8       30.11R
FORSYTH          N/A     45  32  61 N8        30.10R
LAUREL           N/A     59  21  23 W7        30.07R
ROUNDUP          N/A     52  26  36 NE6       29.98S
$$

REGIONAL REPORTS...DAKOTAS

CITY           SKY/WX    TMP DP  RH WIND       PRES   REMARKS
WILLISTON      CLOUDY    28  24  85 N10       30.14R WCI  19
MINOT          CLOUDY    14   6  70 NE5       30.17R HAZE
DICKINSON      CLOUDY    30  24  78 N12       30.08R WCI  20
BEACH          CLOUDY    32  32 100 N13       30.13R WCI  22
CROSBY         CLOUDY    23  21  93 E7        30.17R WCI  15
TIOGA          CLOUDY    23  23 100 NE9       30.18R WCI  13
WATFORD CITY   CLOUDY    27  25  93 NE9       30.13R WCI  17
BISMARCK       CLOUDY    21  13  71 NE10      30.16R WCI  10
GRAND FORKS    CLOUDY     9  -1  64 N7        30.27R WCI  -2
FARGO          CLOUDY    12   0  58 N12       30.24R WCI  -2
BUFFALO SD       N/A     42  30  62 N9        29.99R
RAPID CITY     CLEAR     55  23  28 NW24G33   30.01R
$$

REGIONAL REPORTS...WYOMING/IDAHO/WASHINGTON

CITY           SKY/WX    TMP DP  RH WIND       PRES   REMARKS
GILLETTE       CLEAR     48  26  42 NW10      30.07R
SHERIDAN       CLOUDY    50  26  39 N7        30.08R
BUFFALO WY     CLOUDY    50  25  37 S5        30.11R
CODY           CLOUDY    57  18  21 W13       30.14R
YELLOWSTONE LA   N/A     35  21  56 CALM      30.35R
IDAHO FALLS    CLOUDY    21  17  84 N3        30.41R
SALMON         CLOUDY    21  18  86 CALM      30.37F
BOISE          SUNNY     41  33  73 N10       30.41R
SPOKANE        CLOUDY    40  34  79 E3        30.24R
$$

REGIONAL REPORTS...ALBERTA

CITY           SKY/WX    TMP DP  RH WIND       PRES   REMARKS
EDMONTON       CLOUDY    30  25  80 E14       30.08F WCI  20
CALGARY        CLOUDY    32  30  93 SE8       29.98S FOG     WCI  25
LETHBRIDGE     MOCLDY    41  32  70 VRB6      29.99F
MEDICINE HAT   MOCLDY    36  32  87 NE13      30.06R WCI  27
WATERTON GATE    N/A     52  23  32 SW10G17     N/A
CARDSTON         N/A     55  23  28 W8          N/A
$$

REGIONAL REPORTS...SASKATCHEWAN

CITY           SKY/WX    TMP DP  RH WIND       PRES   REMARKS
SWIFT CURRENT  CLOUDY    27  25  93 E12       30.10S WCI  16
REGINA         FRZ DRZL  18  14  86 N13       30.17R WCI   4
SASKATOON        N/A     19  18  93 NE12      30.23R WCI   7
CYPRESS HILLS    N/A     30  28  93 SE7         N/A  WCI  23
VAL MARIE        N/A     34  27  75 NW2         N/A
ROCKGLEN         N/A     28  25  86 N8          N/A  WCI  20
ASSINIBOIA       N/A     28  23  80 E12         N/A  WCI  18
$$




USA.gov is the U.S. government's official web portal to all federal, state and local government web resources and services.